Location: St. Louis
(38.6270°N, 90.1994°W)
Time: 10:19:34
(UTC-06:00)

Tiros 1 despin weight - Pass Details

Date: 04 December 2021
Orbit: 592 x 641 km, 48.2° (Epoch: 25 January)

Event Time Altitude Azimuth Distance (km) Brightness Sun altitude
Rises 17:33:44 0° 304° (WNW) 2,825 ? -10.5°
Reaches altitude 10° 17:36:06 10° 311° (NW) 1,922 ? -10.9°
Maximum altitude 17:40:18 43° 23° (NNE) 842 ? -11.7°
Enters shadow 17:43:26 17° 90° (E) 1,541 ? -12.3°
